Location: Unspecified
(48.5670°N, 0.0000°E)
Time: 18:12:11
(UTC+00:00)

OTV 5 (USA 277) - Visible Passes

Search period start: 20 June 2019 00:00
Search period end: 30 June 2019 00:00
Orbit: 310 x 325 km, 54.5° (Epoch: 08 May)

Date Brightness Start Highest point End Pass type
(mag) Time Alt. Az. Time Alt. Az. Time Alt. Az.
20 Jun ? 00:36:13 10° WNW 00:38:37 25° N 00:41:02 10° NE visible
20 Jun ? 02:11:07 10° NW 02:13:31 25° N 02:15:54 10° ENE visible
20 Jun ? 21:42:46 14° SSW 21:44:33 27° SE 21:46:59 10° ENE visible
20 Jun ? 23:16:07 10° W 23:18:48 44° NNW 23:21:30 10° NE visible
21 Jun ? 00:51:18 10° WNW 00:53:36 22° N 00:55:53 10° NE visible
21 Jun ? 02:25:51 10° NW 02:28:27 35° NNE 02:31:01 10° E visible
21 Jun ? 21:56:27 10° SW 21:59:11 63° SSE 22:01:57 10° ENE visible
21 Jun ? 23:31:12 10° WNW 23:33:42 29° NNW 23:36:11 10° NE visible
22 Jun ? 01:06:14 10° NW 01:08:35 23° N 01:10:54 10° ENE visible
22 Jun ? 02:40:33 10° NW 02:43:18 60° NNE 02:46:01 10° ESE visible
22 Jun ? 22:11:11 10° WSW 22:13:56 60° NNW 22:16:41 10° NE visible
22 Jun ? 23:46:19 10° WNW 23:48:39 23° N 23:50:59 10° NE visible
23 Jun ? 01:21:02 10° NW 01:23:32 29° NNE 01:26:01 10° ENE visible
23 Jun ? 02:55:18 10° WNW 02:58:02 62° SSW 03:00:45 10° SE visible
23 Jun ? 20:51:47 10° SW 20:54:25 41° SE 20:57:03 10° ENE visible
23 Jun ? 22:26:12 10° W 22:28:47 35° NNW 22:31:23 10° NE visible
24 Jun ? 00:01:20 10° NW 00:03:38 22° N 00:05:56 10° ENE visible
24 Jun ? 01:35:45 10° NW 01:38:26 44° NNE 01:41:06 10° E visible
24 Jun ? 03:10:16 10° W 03:12:39 26° SW 03:15:02 10° SSE visible
24 Jun ? 21:06:20 10° WSW 21:09:06 86° NNW 21:11:53 10° ENE visible
24 Jun ? 22:41:19 10° WNW 22:43:42 25° N 22:46:07 10° NE visible
25 Jun ? 00:16:12 10° NW 00:18:37 26° N 00:21:00 10° ENE visible
25 Jun ? 01:50:27 10° WNW 01:53:13 87° NNE 01:55:59 10° ESE visible
25 Jun ? 21:21:13 10° W 21:23:54 44° NNW 21:26:35 10° NE visible
25 Jun ? 22:56:24 10° WNW 22:58:41 22° N 23:00:59 10° NE visible
26 Jun ? 00:30:57 10° NW 00:33:32 35° NNE 00:36:08 10° E visible
26 Jun ? 02:05:17 10° WNW 02:07:55 40° SW 02:10:31 10° SE visible
26 Jun ? 21:36:18 10° WNW 21:38:48 29° NNW 21:41:17 10° NE visible
26 Jun ? 23:11:20 10° NW 23:13:40 23° N 23:16:01 10° ENE visible
27 Jun ? 00:45:38 10° NW 00:48:24 61° NNE 00:50:15 18° ESE visible
27 Jun ? 02:20:28 10° W 02:20:59 13° W 02:20:59 13° W visible
27 Jun ? 21:51:25 10° WNW 21:53:45 23° N 21:56:05 10° NE visible
27 Jun ? 23:26:08 10° NW 23:28:38 29° NNE 23:31:07 10° ENE visible
28 Jun ? 01:00:23 10° WNW 01:02:31 45° W 01:02:31 45° W visible
28 Jun ? 22:06:26 10° NW 22:08:44 23° N 22:11:02 10° ENE visible
28 Jun ? 23:40:50 10° NW 23:43:31 45° NNE 23:44:43 26° E visible
29 Jun ? 01:15:21 10° W 01:15:32 11° W 01:15:32 11° W visible
29 Jun ? 20:46:25 10° WNW 20:48:49 25° N 20:51:13 10° NE visible
29 Jun ? 22:21:18 10° NW 22:23:42 26° N 22:26:07 10° ENE visible
